Location: Dead Woman Crossing
(43.5369°N, 106.3228°W)
Time: 03:58:37
(UTC+00:00)

UWE-3 - Pass Details

Date: 07 July 2022
Orbit: 583 x 677 km, 97.7° (Epoch: 07 August)

Event Time Altitude Azimuth Distance (km) Brightness Sun altitude
Rises 10:45:39 0° 9° (N) 2,925 ? -7.5°
Reaches altitude 10° 10:47:51 10° 7° (N) 2,028 ? -7.2°
Maximum altitude 10:52:14 67° 285° (WNW) 704 ? -6.6°
Drops below altitude 10° 10:56:43 10° 204° (SSW) 2,068 ? -6.0°
Enters shadow 10:58:11 - 202° (SSW) 2,667 ? -5.8°
